Location: Katherine
(14.4670°S, 132.2670°E)
Time: 14:23:36
(UTC+09:30)

ISS - Pass Details

Date: 19 February 2018
Orbit: 402 x 407 km, 51.6° (Epoch: 23 February)

Event Time Altitude Azimuth Distance (km) Brightness Sun altitude
Rises 19:52:54 0° 320° (NW) 2,302 0.4 -10.9°
Reaches altitude 10° 19:54:58 10° 319° (NW) 1,450 -0.7 -11.4°
Maximum altitude 19:58:13 76° 233° (SW) 421 -3.7 -12.2°
Drops below altitude 10° 20:01:30 10° 147° (SSE) 1,467 -1.2 -12.9°
Sets 20:03:36 0° 145° (SE) 2,333 -0.2 -13.4°
